Location: Moscow
(55.7500°N, 37.5830°E)
Time: 17:18:56
(UTC+03:00)

ISS - Pass Details

Date: 20 March 2026
Orbit: 416 x 425 km, 51.6° (Epoch: 19 April)

Event Time Altitude Azimuth Distance (km) Brightness Sun altitude
Rises 19:30:21 0° 256° (WSW) 2,387 1.4 -7.4°
Reaches altitude 10° 19:32:31 10° 249° (WSW) 1,520 0.1 -7.7°
Maximum altitude 19:35:45 41° 177° (S) 631 -3.0 -8.2°
Enters shadow 19:38:41 12° 108° (ESE) 1,401 -1.8 -8.6°
